Millington, TN

8:31 PM CDT on October 21, 2017 (GMT -0500)
Millington Municipal

Weather History for KNQA - April, 2014

Change the Weather History Date:

Tuesday, April 8, 2014

  Actual Average Record
Temperature  
Mean Temperature 50 °F -  
Max Temperature 62 °F 69 °F 86 °F (2015)
Min Temperature 37 °F 50 °F 26 °F (2007)
Degree Days  
Heating Degree Days 16    
Moisture  
Dew Point 44 °F    
Average Humidity 87    
Maximum Humidity 100    
Minimum Humidity 55    
Precipitation  
Precipitation 0.00 in - - ()
Sea Level Pressure  
Sea Level Pressure 29.87 in    
Wind  
Wind Speed 2 mph (WNW)    
Max Wind Speed 15 mph    
Max Gust Speed -    
Visibility 10 miles    
Events      
Averages and records for this station are not official NWS values.
T = Trace of Precipitation, MM = Missing Value Source: NWS Daily Summary

Daily Weather History Graph

Daily Weather History Graph

Search for Another Location

Airport or City:

Trip Planner

Search our weather history database for the weather conditions in past years. The results will help you decide how hot, cold, wet, or windy it might be!

Date:

Astronomy

Apr. 08, 2014 Rise Set
Actual Time 6:36 AM CDT 7:26 PM CDT
Civil Twilight 6:10 AM CDT 7:52 PM CDT
Nautical Twilight 5:40 AM CDT 8:23 PM CDT
Astronomical Twilight 5:08 AM CDT 8:54 PM CDT
Moon 1:32 PM CDT (4/8) 2:36 AM CDT (4/8)
Length of Visible Light 13h 42m
Length of Day
12h 50m
Waxing Gibbous, 63% of the Moon is Illuminated
Apr 8
Waxing Gibbous
Apr 15
Full
Apr 22
Last Quarter
Apr 29
New
May 6
First Quarter

Hourly Weather History & Observations

Time (CDT) Temp. Windchill Dew Point Humidity Pressure Visibility Wind Dir Wind Speed Gust Speed Precip Events Conditions
12:50 AM 41.0 °F - 41.0 °F 100% 29.88 in 10.0 mi Calm Calm - N/A   Clear
1:50 AM 41.0 °F - 41.0 °F 100% 29.86 in 10.0 mi Calm Calm - N/A   Clear
2:15 AM 41.0 °F - 41.0 °F 100% 29.85 in 8.0 mi Calm Calm - N/A   Clear
2:35 AM 41.0 °F - 41.0 °F 100% 29.84 in 6.0 mi Calm Calm - N/A   Clear
2:55 AM 39.2 °F - 39.2 °F 100% 29.84 in 7.0 mi Calm Calm - N/A   Clear
3:15 AM 42.8 °F - 42.8 °F 100% 29.84 in 8.0 mi Calm Calm - N/A   Clear
3:35 AM 42.8 °F - 42.8 °F 100% 29.84 in 10.0 mi Calm Calm - N/A   Clear
3:55 AM 42.8 °F - 42.8 °F 100% 29.83 in 10.0 mi Calm Calm - N/A   Clear
4:15 AM 42.8 °F - 42.8 °F 100% 29.83 in 10.0 mi Calm Calm - N/A   Clear
4:35 AM 41.0 °F - 41.0 °F 100% 29.82 in 10.0 mi Calm Calm - N/A   Clear
4:55 AM 39.2 °F - 39.2 °F 100% 29.81 in 7.0 mi Calm Calm - N/A   Clear
5:30 AM 39.2 °F - 39.2 °F 100% 29.82 in 10.0 mi Calm Calm - N/A   Clear
5:50 AM 37.4 °F - 37.4 °F 100% 29.82 in 10.0 mi Calm Calm - N/A   Clear
6:50 AM 39.2 °F - 39.2 °F 100% 29.83 in 10.0 mi Calm Calm - N/A   Partly Cloudy
7:50 AM 44.6 °F 43.1 °F 44.6 °F 100% 29.83 in 10.0 mi SE 3.5 mph - N/A   Scattered Clouds
8:50 AM 50.0 °F - 46.4 °F 87% 29.84 in 10.0 mi SSW 3.5 mph - N/A   Overcast
9:50 AM 55.4 °F - 48.2 °F 77% 29.84 in 10.0 mi SSW 3.5 mph - N/A   Overcast
10:50 AM 57.2 °F - 50.0 °F 77% 29.85 in 10.0 mi WNW 3.5 mph - N/A   Overcast
11:50 AM 62.6 °F - 50.0 °F 63% 29.84 in 10.0 mi WNW 6.9 mph - N/A   Overcast
12:50 PM 60.8 °F - 50.0 °F 68% 29.84 in 10.0 mi WNW 6.9 mph - N/A   Overcast
1:50 PM 60.8 °F - 48.2 °F 63% 29.84 in 10.0 mi NW 15.0 mph - N/A   Overcast
2:50 PM 62.6 °F - 46.4 °F 55% 29.82 in 10.0 mi NW 15.0 mph - N/A   Mostly Cloudy
4:50 PM 55.4 °F - 48.2 °F 77% 29.85 in 10.0 mi NW 15.0 mph - N/A   Mostly Cloudy
5:50 PM 55.4 °F - 46.4 °F 72% 29.87 in 10.0 mi NW 15.0 mph - N/A   Mostly Cloudy
6:50 PM 55.4 °F - 46.4 °F 72% 29.89 in 10.0 mi WNW 4.6 mph - N/A   Mostly Cloudy
7:50 PM 53.6 °F - 46.4 °F 77% 29.93 in 10.0 mi NW 3.5 mph - N/A   Mostly Cloudy
8:55 PM 51.8 °F - 46.4 °F 82% 29.98 in 10.0 mi WNW 4.6 mph - N/A   Mostly Cloudy
9:50 PM 51.8 °F - 46.4 °F 82% 30.00 in 10.0 mi Calm Calm - N/A   Scattered Clouds
10:50 PM 50.0 °F - 44.6 °F 82% 30.02 in 10.0 mi WNW 5.8 mph - N/A   Scattered Clouds
11:52 PM 50.0 °F - 44.6 °F 82% 30.03 in 10.0 mi NW 6.9 mph - N/A   Clear